Tracking 19831 objects as of 23-Aug-2019
HD Live streaming from Space Station
objects crossing your sky now

TITAN 3C TRANSTAGE DEB

Track TITAN 3C TRANSTAGE DEB now!
10-day predictions


NORAD ID: 36982
Int'l Code: 1965-108DN
Perigee: 438.5 km
Apogee: 24,316.7 km
Inclination: 26.9 °
Period: 425.8 minutes
Semi major axis: 18748 km
RCS: 0.0557 m2 (small)
Launch date: December 21, 1965
Source: United States (US)
Launch site: AIR FORCE EASTERN TEST RANGE (AFETR)

Note: This is SATELLITE DEBRIS
aabbcc
Your satellite tracking list
Your tracking list is empty




NASA's NSSDC Master Catalog

Two Line Element Set (TLE):
1 36982U 65108DN  19234.64704006 -.00000245  00000-0 -42991-4 0  9996
2 36982  26.9095  29.9125 6368013  73.0064 344.3509  3.38182553137654
Source of the keplerian elements: AFSPC